Wheeler Sack Army Air Field Fort Drum US
ICAO: KGTB
IATA: GTB
Category: Medium
Scheduled Services: No

Elevation: 688 ft
TransAlt. 18000 ft.

Airport Communications:
APP/DEP:128.25
ATIS:126.55
GND:121.9
FORT DRUM FLT FLW:141.025
BASE OPS:120.8
PMSV SACK METRO:63.3
TWR:118.75

KGTB Zoom In..

If you have problems with the map follow the link
https://www.worldairports.se/pages/airport.php?
ICAO=KGTB

Runways:

(A) RW 03 length 10000 ft width 150 ft
ILS 108.50 / hdg 29

(B) RW 08 length 4501 ft width 150 ft
---- / hdg 84

(C) RW 15 length 4998 ft width 150 ft
---- / hdg 147

(D) RW 21 length 10000 ft width 150 ft
ILS 108.50 / hdg 209

(E) RW 26 length 4501 ft width 150 ft
---- / hdg 264

(F) RW 33 length 4998 ft width 150 ft
---- / hdg 327

Location; KGTB
Day. 16 / Time. 10.56 Zulu
* Altimeter: 29.75
* Temperature: -03° c. -26.6°f.
* Wind from: 010° Speed 03 kn.
Dewpoint: -03° c.
Visibility: 3 Statute Miles.
Clouds: Overcast 900 ft.
Conditions: Light Snow.Conditions: Mist.

KGTB 161056Z AUTO 01003KT 3SM -SN BR OVC009 M03/M03 A2975 RMK AO2 SLP083 P0000 T10331033


Wind From 010°
Speed 03 kn.

 
 
jpsmedia.com for Web Design worldairports.se 2018   terms of use